When you browse on this site, cookies collect data to enhance your experience and personalize the content and advertising you see.
Visit our Privacy Policy to learn more. By continuing to use the site, you agree to this use of cookies and data.
  • In Slovakia
  • List of Countries
  • For 7 days
  • Water Temperature
  • Satellite Maps
  • Weather Map
  • Weather Widgets
  • user-avatar
    Login

    Hourly Weather Asadabad

    Today, 16 July, Tuesday

    Time Temperature Precipitation Wind Pressure Humidity
    00:00 +26°C° 0.2 mm 1 mps 652 mmHg 75%
    01:00 +26°C° 0.2 mm 1 mps 652 mmHg 77%
    02:00 +24°C° 0.2 mm 0 mps 652 mmHg 78%
    03:00 +23°C° 0 mm 0 mps 652 mmHg 78%
    04:00 +23°C° 0 mm 0 mps 652 mmHg 78%
    05:00 +25°C° 0 mm 1 mps 651 mmHg 74%
    06:00 +26°C° 0.1 mm 1 mps 652 mmHg 71%
    07:00 +27°C° 0.1 mm 1 mps 652 mmHg 68%
    08:00 +28°C° 0.1 mm 1 mps 653 mmHg 64%
    09:00 +29°C° 0 mm 2 mps 653 mmHg 60%
    10:00 +30°C° 0 mm 2 mps 653 mmHg 56%
    11:00 +31°C° 0 mm 3 mps 654 mmHg 51%
    12:00 +33°C° 0.1 mm 3 mps 654 mmHg 53%
    13:00 +33°C° 0.1 mm 3 mps 653 mmHg 54%
    14:00 +33°C° 0.1 mm 4 mps 653 mmHg 55%
    15:00 +31°C° 1.1 mm 3 mps 653 mmHg 59%
    16:00 +31°C° 1.1 mm 3 mps 653 mmHg 62%
    17:00 +30°C° 1.1 mm 3 mps 653 mmHg 66%
    18:00 +29°C° 1.5 mm 2 mps 653 mmHg 69%
    19:00 +28°C° 1.5 mm 2 mps 653 mmHg 72%
    20:00 +28°C° 1.5 mm 1 mps 653 mmHg 75%
    21:00 +28°C° 0.1 mm 1 mps 653 mmHg 76%
    22:00 +27°C° 0.1 mm 1 mps 654 mmHg 77%
    23:00 +27°C° 0.1 mm 1 mps 654 mmHg 78%

    Tomorrow, 17 July, Wednesday

    Time Temperature Precipitation Wind Pressure Humidity
    00:00 +27°C° 0.2 mm 1 mps 654 mmHg 79%
    01:00 +24°C° 0.2 mm 0 mps 653 mmHg 80%
    02:00 +24°C° 0.2 mm 0 mps 653 mmHg 82%
    03:00 +23°C° 0.2 mm 0 mps 653 mmHg 82%
    04:00 +23°C° 0.2 mm 0 mps 653 mmHg 82%
    05:00 +23°C° 0.2 mm 0 mps 653 mmHg 81%
    06:00 +26°C° 0.1 mm 1 mps 653 mmHg 77%
    07:00 +27°C° 0.1 mm 1 mps 653 mmHg 73%
    08:00 +27°C° 0.1 mm 1 mps 654 mmHg 68%
    09:00 +28°C° 0 mm 1 mps 654 mmHg 66%
    10:00 +29°C° 0 mm 2 mps 654 mmHg 63%
    11:00 +30°C° 0 mm 2 mps 654 mmHg 61%
    12:00 +31°C° 0 mm 3 mps 654 mmHg 58%
    13:00 +33°C° 0 mm 3 mps 654 mmHg 56%
    14:00 +33°C° 0 mm 3 mps 653 mmHg 54%
    15:00 +33°C° 0.1 mm 3 mps 653 mmHg 55%
    16:00 +33°C° 0.1 mm 3 mps 653 mmHg 56%
    17:00 +33°C° 0.1 mm 3 mps 653 mmHg 58%
    18:00 +31°C° 0.5 mm 2 mps 653 mmHg 61%
    19:00 +30°C° 0.5 mm 2 mps 653 mmHg 64%
    20:00 +29°C° 0.5 mm 2 mps 653 mmHg 68%
    21:00 +29°C° 0.1 mm 1 mps 653 mmHg 69%
    22:00 +28°C° 0.1 mm 1 mps 654 mmHg 71%
    23:00 +26°C° 0.1 mm 0 mps 654 mmHg 73%

    Day after tomorrow, 18 July, Thursday

    Time Temperature Precipitation Wind Pressure Humidity
    00:00 +26°C° 0.1 mm 0 mps 654 mmHg 74%
    01:00 +26°C° 0.1 mm 0 mps 653 mmHg 75%
    02:00 +25°C° 0.1 mm 0 mps 653 mmHg 76%
    03:00 +25°C° 0.2 mm 0 mps 653 mmHg 76%
    04:00 +24°C° 0.2 mm 0 mps 653 mmHg 76%
    05:00 +24°C° 0.2 mm 0 mps 653 mmHg 76%
    06:00 +25°C° 0 mm 0 mps 653 mmHg 72%
    07:00 +28°C° 0 mm 1 mps 654 mmHg 67%
    08:00 +29°C° 0 mm 1 mps 654 mmHg 63%
    09:00 +30°C° 0 mm 1 mps 654 mmHg 59%
    10:00 +31°C° 0 mm 2 mps 654 mmHg 56%
    11:00 +32°C° 0 mm 2 mps 654 mmHg 53%
    12:00 +34°C° 0 mm 3 mps 654 mmHg 51%
    13:00 +34°C° 0 mm 3 mps 654 mmHg 50%
    14:00 +35°C° 0 mm 3 mps 654 mmHg 48%
    15:00 +34°C° 0.5 mm 3 mps 653 mmHg 51%
    16:00 +34°C° 0.5 mm 3 mps 653 mmHg 54%
    17:00 +33°C° 0.5 mm 3 mps 653 mmHg 57%
    18:00 +32°C° 0.4 mm 2 mps 653 mmHg 60%
    19:00 +31°C° 0.4 mm 2 mps 653 mmHg 64%
    20:00 +30°C° 0.4 mm 1 mps 653 mmHg 68%
    21:00 +30°C° 0.1 mm 1 mps 653 mmHg 69%
    22:00 +29°C° 0.1 mm 1 mps 654 mmHg 71%
    23:00 +27°C° 0.1 mm 0 mps 654 mmHg 72%

    19 July, Friday

    Time Temperature Precipitation Wind Pressure Humidity
    00:00 +27°C° 0.2 mm 0 mps 654 mmHg 73%
    01:00 +26°C° 0.2 mm 0 mps 654 mmHg 73%
    02:00 +26°C° 0.2 mm 0 mps 653 mmHg 74%
    03:00 +26°C° 0.1 mm 0 mps 653 mmHg 74%
    04:00 +25°C° 0.1 mm 0 mps 653 mmHg 75%
    05:00 +25°C° 0.1 mm 0 mps 653 mmHg 75%
    06:00 +26°C° 0 mm 0 mps 654 mmHg 70%
    07:00 +29°C° 0 mm 1 mps 654 mmHg 65%
    08:00 +30°C° 0 mm 1 mps 655 mmHg 61%
    09:00 +31°C° 0 mm 1 mps 655 mmHg 58%
    10:00 +32°C° 0 mm 2 mps 655 mmHg 55%
    11:00 +34°C° 0 mm 3 mps 655 mmHg 52%
    12:00 +34°C° 0 mm 3 mps 655 mmHg 51%
    13:00 +35°C° 0 mm 3 mps 655 mmHg 50%
    14:00 +35°C° 0 mm 3 mps 654 mmHg 49%
    15:00 +35°C° 0.4 mm 3 mps 654 mmHg 49%
    16:00 +35°C° 0.4 mm 3 mps 654 mmHg 49%
    17:00 +35°C° 0.4 mm 3 mps 654 mmHg 49%
    18:00 +34°C° 0.3 mm 2 mps 654 mmHg 53%
    19:00 +32°C° 0.3 mm 2 mps 654 mmHg 57%
    20:00 +32°C° 0.3 mm 1 mps 654 mmHg 60%
    21:00 +31°C° 0.1 mm 1 mps 654 mmHg 63%
    22:00 +31°C° 0.1 mm 1 mps 655 mmHg 66%
    23:00 +28°C° 0.1 mm 0 mps 655 mmHg 69%

    20 July, Saturday

    Time Temperature Precipitation Wind Pressure Humidity
    00:00 +28°C° 0.2 mm 0 mps 655 mmHg 70%
    01:00 +27°C° 0.2 mm 0 mps 655 mmHg 71%
    02:00 +29°C° 0.2 mm 1 mps 654 mmHg 72%
    03:00 +28°C° 0.1 mm 1 mps 654 mmHg 72%
    04:00 +28°C° 0.1 mm 1 mps 654 mmHg 72%
    05:00 +28°C° 0.1 mm 1 mps 654 mmHg 73%
    06:00 +29°C° 0 mm 1 mps 654 mmHg 68%
    07:00 +30°C° 0 mm 1 mps 655 mmHg 63%
    08:00 +30°C° 0 mm 1 mps 655 mmHg 58%
    09:00 +31°C° 0 mm 1 mps 655 mmHg 56%
    10:00 +32°C° 0 mm 2 mps 655 mmHg 54%
    11:00 +34°C° 0 mm 2 mps 655 mmHg 52%
    12:00 +35°C° 0 mm 3 mps 655 mmHg 50%
    13:00 +36°C° 0 mm 3 mps 655 mmHg 48%
    14:00 +37°C° 0 mm 4 mps 655 mmHg 47%
    15:00 +36°C° 0.2 mm 3 mps 655 mmHg 48%
    16:00 +36°C° 0.2 mm 3 mps 654 mmHg 48%
    17:00 +36°C° 0.2 mm 3 mps 654 mmHg 49%
    18:00 +35°C° 0.3 mm 2 mps 654 mmHg 54%
    19:00 +34°C° 0.3 mm 2 mps 654 mmHg 58%
    20:00 +32°C° 0.3 mm 1 mps 654 mmHg 62%
    21:00 +32°C° 0.1 mm 1 mps 654 mmHg 64%
    22:00 +31°C° 0.1 mm 1 mps 654 mmHg 66%
    23:00 +30°C° 0.1 mm 1 mps 654 mmHg 69%

    21 July, Sunday

    Time Temperature Precipitation Wind Pressure Humidity
    00:00 +30°C° 0 mm 1 mps 654 mmHg 70%
    01:00 +27°C° 0 mm 0 mps 654 mmHg 72%
    02:00 +27°C° 0 mm 0 mps 653 mmHg 74%
    03:00 +27°C° 0 mm 0 mps 653 mmHg 71%
    04:00 +28°C° 0 mm 1 mps 653 mmHg 69%
    05:00 +28°C° 0 mm 1 mps 653 mmHg 67%
    06:00 +29°C° 0 mm 1 mps 653 mmHg 63%
    07:00 +30°C° 0 mm 1 mps 653 mmHg 59%
    08:00 +31°C° 0 mm 1 mps 654 mmHg 55%
    09:00 +32°C° 0 mm 1 mps 654 mmHg 52%
    10:00 +34°C° 0 mm 2 mps 654 mmHg 49%
    11:00 +35°C° 0 mm 2 mps 654 mmHg 46%
    12:00 +36°C° 0 mm 3 mps 654 mmHg 44%
    13:00 +37°C° 0 mm 3 mps 654 mmHg 42%
    14:00 +38°C° 0 mm 4 mps 654 mmHg 39%
    15:00 +38°C° 0.1 mm 3 mps 653 mmHg 40%
    16:00 +38°C° 0.1 mm 3 mps 653 mmHg 40%
    17:00 +38°C° 0.1 mm 3 mps 653 mmHg 40%
    18:00 +36°C° 0.7 mm 3 mps 653 mmHg 46%
    19:00 +35°C° 0.7 mm 2 mps 653 mmHg 51%
    20:00 +32°C° 0.7 mm 1 mps 652 mmHg 57%
    21:00 +32°C° 0.1 mm 1 mps 653 mmHg 58%
    22:00 +31°C° 0.1 mm 1 mps 653 mmHg 60%
    23:00 +31°C° 0.1 mm 1 mps 653 mmHg 61%
    Show more